Lawton, OK

12:03 PM CDT on September 22, 2017 (GMT -0500)
Lawton-Fort Sill Regional

Weather History for KLAW - October, 2013

Change the Weather History Date:

Thursday, October 10, 2013

  Actual Average Record
Temperature  
Mean Temperature 70 °F -  
Max Temperature 86 °F 76 °F 95 °F (1965)
Min Temperature 57 °F 49 °F 28 °F (2000)
Cooling Degree Days 6    
Growing Degree Days 20 (Base 50)    
Moisture  
Dew Point 56 °F    
Average Humidity 59    
Maximum Humidity 84    
Minimum Humidity 40    
Precipitation  
Precipitation 0.00 in - - ()
Sea Level Pressure  
Sea Level Pressure 29.90 in    
Wind  
Wind Speed 11 mph (SE)    
Max Wind Speed 22 mph    
Max Gust Speed 31 mph    
Visibility 10 miles    
Events      
Averages and records for this station are not official NWS values.
T = Trace of Precipitation, MM = Missing Value Source: NWS Daily Summary

Daily Weather History Graph

Daily Weather History Graph

Search for Another Location

Airport or City:

Trip Planner

Search our weather history database for the weather conditions in past years. The results will help you decide how hot, cold, wet, or windy it might be!

Date:

Astronomy

Oct. 10, 2013 Rise Set
Actual Time 7:35 AM CDT 7:05 PM CDT
Civil Twilight 7:10 AM CDT 7:30 PM CDT
Nautical Twilight 6:41 AM CDT 7:59 PM CDT
Astronomical Twilight 6:11 AM CDT 8:28 PM CDT
Moon 1:19 PM CDT (10/10) 11:53 PM CDT (10/10)
Length of Visible Light 12h 20m
Length of Day
11h 29m
Waxing Crescent, 36% of the Moon is Illuminated
Oct 10
Waxing Crescent
Oct 11
First Quarter
Oct 18
Full
Oct 26
Last Quarter
Nov 3
New

Hourly Weather History & Observations

Time (CDT) Temp. Heat Index Dew Point Humidity Pressure Visibility Wind Dir Wind Speed Gust Speed Precip Events Conditions
12:53 AM 64.9 °F - 51.1 °F 61% 29.96 in 10.0 mi SE 10.4 mph - N/A   Clear
1:53 AM 64.0 °F - 52.0 °F 65% 29.96 in 10.0 mi SSE 10.4 mph - N/A   Clear
2:53 AM 64.0 °F - 52.0 °F 65% 29.97 in 10.0 mi SSE 9.2 mph - N/A   Clear
3:53 AM 61.0 °F - 52.0 °F 72% 29.96 in 10.0 mi SSE 8.1 mph - N/A   Clear
4:53 AM 61.0 °F - 52.0 °F 72% 29.97 in 10.0 mi SE 5.8 mph - N/A   Clear
5:53 AM 59.0 °F - 52.0 °F 78% 29.97 in 10.0 mi ESE 6.9 mph - N/A   Clear
6:53 AM 57.9 °F - 52.0 °F 81% 29.98 in 10.0 mi ESE 4.6 mph - N/A   Clear
7:53 AM 57.9 °F - 53.1 °F 84% 29.98 in 10.0 mi ESE 5.8 mph - N/A   Clear
8:53 AM 64.0 °F - 54.0 °F 70% 29.99 in 10.0 mi SE 8.1 mph - N/A   Clear
9:53 AM 68.0 °F - 55.9 °F 65% 30.00 in 10.0 mi South 9.2 mph - N/A   Clear
10:53 AM 73.9 °F - 59.0 °F 59% 29.99 in 10.0 mi South 12.7 mph 19.6 mph N/A   Clear
11:53 AM 78.1 °F - 59.0 °F 52% 29.96 in 10.0 mi SSE 15.0 mph - N/A   Clear
12:53 PM 82.0 °F 82.4 °F 60.1 °F 47% 29.93 in 10.0 mi South 12.7 mph 23.0 mph N/A   Clear
1:53 PM 82.9 °F 82.6 °F 57.9 °F 42% 29.88 in 10.0 mi South 13.8 mph 25.3 mph N/A   Clear
2:53 PM 84.9 °F 84.2 °F 57.9 °F 40% 29.85 in 10.0 mi SSE 17.3 mph 23.0 mph N/A   Clear
3:53 PM 84.9 °F 84.4 °F 59.0 °F 41% 29.83 in 10.0 mi SE 19.6 mph 29.9 mph N/A   Clear
4:53 PM 84.0 °F 83.3 °F 57.0 °F 40% 29.81 in 10.0 mi SE 18.4 mph 31.1 mph N/A   Clear
5:53 PM 82.0 °F 81.7 °F 57.0 °F 42% 29.80 in 10.0 mi SE 21.9 mph 31.1 mph N/A   Clear
6:53 PM 79.0 °F - 57.0 °F 47% 29.81 in 10.0 mi SE 15.0 mph 21.9 mph N/A   Clear
7:53 PM 77.0 °F - 57.0 °F 50% 29.81 in 10.0 mi SE 16.1 mph 23.0 mph N/A   Clear
8:53 PM 75.0 °F - 57.0 °F 53% 29.80 in 10.0 mi SSE 17.3 mph 27.6 mph N/A   Clear
9:53 PM 73.0 °F - 57.0 °F 57% 29.80 in 10.0 mi SE 15.0 mph - N/A   Clear
10:53 PM 71.1 °F - 57.9 °F 63% 29.80 in 10.0 mi SE 12.7 mph - N/A   Clear
11:53 PM 69.1 °F - 57.9 °F 68% 29.80 in 10.0 mi SE 12.7 mph - N/A   Clear